TimeCDT,TemperatureF,Dew PointF,Humidity,Sea Level PressureIn,VisibilityMPH,Wind Direction,Wind SpeedMPH,Gust SpeedMPH,PrecipitationIn,Events,Conditions,WindDirDegrees,DateUTC
12:53 AM,53.1,32.0,45,30.06,10.0,SSE,18.4,24.2,N/A,,Clear,160,2012-10-29 05:53:00
1:53 AM,52.0,32.0,47,30.05,10.0,SSE,16.1,23.0,N/A,,Clear,160,2012-10-29 06:53:00
2:53 AM,51.1,32.0,48,30.06,10.0,SSE,12.7,-,N/A,,Clear,160,2012-10-29 07:53:00
3:53 AM,48.9,32.0,52,30.05,10.0,SSE,12.7,-,N/A,,Clear,160,2012-10-29 08:53:00
4:53 AM,48.0,32.0,54,30.04,10.0,SSE,9.2,-,N/A,,Clear,160,2012-10-29 09:53:00
5:53 AM,44.1,32.0,63,30.06,10.0,South,5.8,-,N/A,,Clear,180,2012-10-29 10:53:00
6:53 AM,45.0,33.1,63,30.08,10.0,South,8.1,-,N/A,,Clear,180,2012-10-29 11:53:00
7:53 AM,45.0,32.0,60,30.09,10.0,South,9.2,-,N/A,,Clear,170,2012-10-29 12:53:00
8:53 AM,46.9,33.1,59,30.11,10.0,SSE,10.4,-,N/A,,Clear,160,2012-10-29 13:53:00
9:53 AM,54.0,34.0,47,30.12,10.0,SSE,5.8,-,N/A,,Clear,160,2012-10-29 14:53:00
10:53 AM,60.1,36.0,41,30.11,10.0,ESE,3.5,-,N/A,,Clear,120,2012-10-29 15:53:00
11:53 AM,66.0,37.0,34,30.11,10.0,SE,3.5,-,N/A,,Clear,130,2012-10-29 16:53:00
12:53 PM,70.0,36.0,29,30.08,10.0,Calm,Calm,-,N/A,,Clear,0,2012-10-29 17:53:00
1:53 PM,73.9,37.9,27,30.04,10.0,ESE,5.8,-,N/A,,Clear,110,2012-10-29 18:53:00
2:53 PM,75.9,37.0,24,30.01,10.0,East,5.8,-,N/A,,Clear,90,2012-10-29 19:53:00
3:53 PM,77.0,37.0,24,29.99,10.0,ESE,6.9,-,N/A,,Clear,110,2012-10-29 20:53:00
4:53 PM,75.9,37.0,24,29.97,10.0,ESE,8.1,-,N/A,,Clear,110,2012-10-29 21:53:00
5:53 PM,75.0,36.0,24,29.97,10.0,East,11.5,-,N/A,,Clear,100,2012-10-29 22:53:00
6:53 PM,70.0,36.0,29,29.98,10.0,ESE,11.5,-,N/A,,Clear,110,2012-10-29 23:53:00
7:53 PM,66.9,35.1,31,30.00,10.0,SE,10.4,-,N/A,,Clear,140,2012-10-30 00:53:00
8:53 PM,63.0,35.1,35,30.00,10.0,SSE,13.8,-,N/A,,Clear,150,2012-10-30 01:53:00
9:53 PM,61.0,35.1,38,29.99,10.0,SSE,15.0,-,N/A,,Clear,160,2012-10-30 02:53:00
10:53 PM,59.0,34.0,39,29.99,10.0,SSE,16.1,-,N/A,,Clear,160,2012-10-30 03:53:00
11:53 PM,55.9,34.0,44,29.97,10.0,South,12.7,-,N/A,,Clear,170,2012-10-30 04:53:00